Kenai, AK

8:10 PM AKDT on June 25, 2017 (GMT -0800)
Kenai Municipal

Weather History for PAEN - January, 2014

Change the Weather History Date:

Wednesday, January 8, 2014

  Actual Average Record
Temperature  
Mean Temperature 24 °F -  
Max Temperature 30 °F 19 °F 39 °F (1955)
Min Temperature 19 °F 3 °F -38 °F (1975)
Degree Days  
Heating Degree Days 40    
Moisture  
Dew Point 24 °F    
Average Humidity 93    
Maximum Humidity 100    
Minimum Humidity 82    
Precipitation  
Precipitation 0.00 in - - ()
Sea Level Pressure  
Sea Level Pressure 29.26 in    
Wind  
Wind Speed 9 mph (NNE)    
Max Wind Speed 20 mph    
Max Gust Speed -    
Visibility 9 miles    
Events      
Averages and records for this station are not official NWS values.
T = Trace of Precipitation, MM = Missing Value Source: NWS Daily Summary

Daily Weather History Graph

Daily Weather History Graph

Search for Another Location

Airport or City:

Trip Planner

Search our weather history database for the weather conditions in past years. The results will help you decide how hot, cold, wet, or windy it might be!

Date:

Astronomy

Jan. 08, 2014 Rise Set
Actual Time 10:06 AM AKST 4:17 PM AKST
Civil Twilight 9:09 AM AKST 5:14 PM AKST
Nautical Twilight 8:13 AM AKST 6:10 PM AKST
Astronomical Twilight 7:21 AM AKST 7:02 PM AKST
Moon 12:11 PM AKST (1/8) 2:21 AM AKST (1/8)
Length of Visible Light 8h 04m
Length of Day
6h 11m
First Quarter, 57% of the Moon is Illuminated
Jan 8
First Quarter
Jan 15
Full
Jan 23
Last Quarter
Jan 30
New
Feb 6
First Quarter

Hourly Weather History & Observations

Time (AKST) Temp. Windchill Dew Point Humidity Pressure Visibility Wind Dir Wind Speed Gust Speed Precip Events Conditions
12:53 AM 30.9 °F 19.1 °F 27.0 °F 85% 29.38 in 10.0 mi NNE 18.4 mph - N/A   Overcast
1:53 AM 30.9 °F 18.7 °F 27.0 °F 85% 29.35 in 10.0 mi North 19.6 mph - N/A   Overcast
3:53 AM 30.9 °F 19.8 °F 27.0 °F 85% 29.33 in 10.0 mi NNE 16.1 mph - N/A   Overcast
4:53 AM 30.9 °F 18.7 °F 26.1 °F 82% 29.31 in 10.0 mi NNE 19.6 mph - N/A   Overcast
5:53 AM 30.9 °F 22.2 °F 26.1 °F 82% 29.31 in 10.0 mi NE 10.4 mph - N/A   Overcast
6:53 AM 30.9 °F 26.2 °F 27.0 °F 85% 29.31 in 10.0 mi NE 4.6 mph - N/A   Overcast
7:53 AM 30.9 °F 22.2 °F 27.0 °F 85% 29.29 in 10.0 mi NNE 10.4 mph - 0.00 in   Overcast
8:53 AM 30.0 °F 21.7 °F 28.0 °F 92% 29.28 in 10.0 mi NNE 9.2 mph - N/A   Scattered Clouds
9:53 AM 30.0 °F 22.4 °F 27.0 °F 88% 29.28 in 10.0 mi NE 8.1 mph - N/A   Overcast
10:53 AM 30.0 °F 21.7 °F 27.0 °F 88% 29.28 in 10.0 mi NNE 9.2 mph - N/A   Mostly Cloudy
11:53 AM 30.0 °F 21.7 °F 26.1 °F 85% 29.28 in 10.0 mi NE 9.2 mph - N/A   Clear
12:53 PM 30.0 °F 23.2 °F 26.1 °F 85% 29.27 in 10.0 mi NNE 6.9 mph - N/A   Clear
1:53 PM 28.0 °F 20.0 °F 25.0 °F 88% 29.26 in 10.0 mi NE 8.1 mph - N/A   Mostly Cloudy
2:53 PM 27.0 °F 23.0 °F 25.0 °F 92% 29.25 in 10.0 mi NNW 3.5 mph - N/A   Clear
3:53 PM 28.0 °F - 26.1 °F 92% 29.25 in 10.0 mi Calm Calm - N/A   Overcast
4:53 PM 25.0 °F 19.3 °F 24.1 °F 96% 29.24 in 10.0 mi North 4.6 mph - N/A   Mostly Cloudy
5:53 PM 24.1 °F - 24.1 °F 100% 29.24 in 10.0 mi Calm Calm - N/A   Clear
6:51 PM 21.2 °F - 21.2 °F 100% 29.23 in 1.0 mi Calm Calm - N/A   Partly Cloudy
6:53 PM 21.0 °F - 21.0 °F 100% 29.24 in 1.2 mi Calm Calm - N/A   Scattered Clouds
7:01 PM 21.2 °F - 21.2 °F 100% 29.23 in 10.0 mi Calm Calm - N/A   Mostly Cloudy
7:24 PM 19.4 °F - 19.4 °F 100% 29.23 in 10.0 mi Calm Calm - N/A   Overcast
7:39 PM 19.4 °F - 19.4 °F 100% 29.23 in 10.0 mi Calm Calm - N/A   Overcast
7:53 PM 19.9 °F - 19.9 °F 100% 29.24 in 10.0 mi Calm Calm - N/A   Overcast
8:49 PM 19.4 °F - 19.4 °F 100% 29.23 in 10.0 mi Calm Calm - N/A   Overcast
8:53 PM 19.9 °F - 19.9 °F 100% 29.24 in 1.8 mi Calm Calm - N/A   Overcast
9:05 PM 19.4 °F - 19.4 °F 100% 29.23 in 3.0 mi Calm Calm - N/A   Overcast
9:23 PM 21.2 °F - 21.2 °F 100% 29.23 in 10.0 mi Calm Calm - N/A   Overcast
9:34 PM 21.2 °F - 21.2 °F 100% 29.23 in 10.0 mi Calm Calm - N/A   Overcast
9:42 PM 21.2 °F - 21.2 °F 100% 29.23 in 10.0 mi Calm Calm - N/A   Overcast
9:53 PM 21.0 °F - 21.0 °F 100% 29.24 in 9.0 mi Calm Calm - N/A   Overcast
10:53 PM 19.9 °F - 19.9 °F 100% 29.24 in 8.0 mi Calm Calm - N/A   Overcast
11:53 PM 21.9 °F - 21.0 °F 96% 29.25 in 8.0 mi Calm Calm - N/A   Overcast